Wind_Speed
12 12 12 12 14 14 14 13 13 13 13 12 12 12 12 12 12 12 12 12 12 12 11 10 9 10 10 10 10 10 10 10 11 11 11 11 11 10 10 11 11 10 10
14 14 13 14 15 15 15 14 13 14 13 13 13 13 12 12 13 13 13 12 12 12 12 12 11 11 11 12 12 12 11 11 11 11 11 11 10 10 10 10 11 11 11
15 15 14 14 15 15 14 15 14 15 14 14 15 14 13 13 13 13 13 13 13 13 13 12 12 13 13 13 13 13 13 12 12 12 12 12 11 11 11 11 10 11 11
16 16 16 15 15 15 14 14 15 16 16 15 15 14 14 13 13 13 13 13 14 14 13 13 14 14 14 14 14 14 14 14 13 13 13 13 12 11 12 11 11 11 11
17 17 17 16 16 16 15 14 15 15 15 15 15 14 14 14 13 13 14 14 15 15 15 14 15 15 14 15 15 14 14 14 14 13 12 12 12 11 11 11 11 11 11
18 17 17 17 17 18 17 16 16 16 16 16 15 15 15 14 14 15 15 15 15 15 16 15 15 15 15 15 16 15 14 14 14 13 12 12 12 12 11 11 11 11 11
17 17 17 17 17 17 17 17 16 16 16 15 15 16 16 16 16 16 16 16 17 17 17 16 15 15 16 16 16 16 14 13 13 13 12 12 13 13 12 12 12 12 12
16 16 17 17 17 17 16 16 15 16 16 16 16 17 17 16 16 16 17 17 17 17 17 16 16 16 16 16 16 16 15 14 14 14 13 14 13 13 13 13 13 13 13
16 16 17 17 17 17 17 17 16 16 16 16 16 17 17 17 17 16 16 16 16 16 15 15 15 16 16 16 16 16 15 15 15 14 14 14 14 14 14 14 14 13 13
16 16 16 17 17 17 17 17 17 17 16 17 17 17 17 17 16 16 16 16 17 17 17 16 15 15 15 16 16 16 16 16 16 15 15 15 15 15 14 14 14 14 14
17 17 17 16 17 17 17 17 17 17 18 18 18 18 18 18 17 17 17 17 17 17 17 16 16 16 16 15 16 16 16 16 16 15 15 15 15 15 14 14 14 14 14
18 18 18 18 17 17 17 17 18 19 19 19 19 19 20 20 19 18 18 18 17 17 17 17 16 15 15 16 16 17 17 17 16 16 15 15 15 15 15 15 15 15 15
19 19 19 19 18 18 18 19 20 20 20 20 21 21 21 20 20 19 18 18 17 17 17 17 16 16 16 16 17 18 18 18 18 17 17 16 16 16 16 16 16 16 16
21 21 20 20 19 19 19 20 21 21 21 21 22 21 21 20 20 20 20 19 18 17 17 17 17 17 17 16 17 18 19 19 19 19 18 18 18 17 17 17 17 17 16
22 22 21 21 21 21 21 22 22 22 23 22 22 22 22 21 21 21 22 21 20 19 19 19 19 18 18 17 17 18 19 19 20 20 20 20 20 19 19 18 18 17 17
23 23 23 23 23 23 23 23 23 23 23 23 23 23 23 23 22 22 22 23 22 21 21 21 21 20 20 19 18 19 19 20 20 21 22 22 21 21 20 20 19 18 18
25 24 24 24 24 25 25 25 25 25 25 24 24 24 24 24 24 23 23 23 23 23 23 22 22 21 21 20 19 19 20 21 21 22 23 23 23 23 22 22 21 20 20
26 26 26 25 25 25 26 26 26 26 26 25 24 25 25 25 24 25 24 23 23 23 22 22 22 22 21 20 20 20 20 21 22 23 23 24 23 23 24 24 23 22 21
27 27 27 27 27 27 28 28 27 27 27 26 25 25 25 25 25 25 25 24 24 23 23 23 23 23 22 22 21 21 21 21 22 23 24 25 25 24 24 24 24 23 23
28 28 28 28 28 28 28 27 27 27 27 27 26 26 26 25 25 25 24 24 23 24 24 24 24 24 24 24 23 23 22 22 23 23 24 25 25 25 25 25 25 24 24
29 28 28 28 28 28 28 27 27 27 27 27 27 26 26 25 25 25 25 25 26 26 26 26 25 25 26 26 25 25 24 24 24 24 24 25 26 26 26 26 26 26 26
29 28 28 28 28 28 27 27 27 27 27 27 26 26 26 26 26 26 26 27 27 28 27 27 27 27 28 28 27 27 26 26 26 25 25 25 26 27 27 27 27 27 27
28 28 28 28 28 28 27 27 26 27 27 28 27 27 27 26 26 26 26 27 28 28 28 28 28 28 29 28 28 28 28 28 27 27 26 27 26 26 27 28 28 28 28
28 28 28 28 28 28 28 27 26 26 27 28 28 27 27 27 26 26 27 27 27 28 29 29 29 28 28 28 29 29 29 29 29 29 28 28 28 28 27 27 28 28 28
29 29 29 29 28 27 27 27 27 27 28 29 29 28 28 27 28 28 28 28 28 28 28 29 29 29 29 29 29 30 30 30 29 29 29 29 29 29 29 29 28 29 29
29 28 28 28 28 28 27 27 28 28 29 30 29 28 28 28 28 28 28 29 29 29 30 30 30 30 30 30 30 30 30 30 30 30 30 29 29 30 30 30 30 30 30
Wind_Direction
278 278 281 281 281 278 274 275 272 267 265 265 265 267 266 266 264 265 268 271 273 263 260 265 264 264 259 253 252 250 249 251 255 257 256 259 262 262 264 263 260 257 259
273 276 280 281 282 280 276 275 273 267 262 261 262 264 265 266 265 261 264 267 268 268 266 266 265 264 259 258 254 251 250 255 257 258 260 263 262 262 264 264 262 260 259
274 275 278 280 283 283 278 272 269 265 261 261 262 263 265 266 266 262 262 265 266 267 271 265 264 262 257 257 256 253 253 256 258 259 260 263 264 260 260 260 261 261 260
275 277 277 278 278 279 279 273 268 265 260 259 259 260 261 263 264 263 264 267 268 269 268 262 259 257 257 258 256 255 258 258 258 259 260 260 262 260 257 257 260 261 260
274 275 273 273 272 273 274 273 272 265 260 260 260 261 261 261 264 267 268 268 269 268 266 263 261 257 257 257 254 258 255 256 255 254 255 256 257 261 259 260 261 262 264
270 271 270 270 269 269 271 272 273 266 263 264 264 261 261 262 263 267 269 269 266 266 264 265 263 261 259 257 255 258 258 257 255 251 249 252 254 257 257 259 260 262 266
270 270 270 270 268 269 272 271 270 266 265 265 264 262 261 262 262 265 266 270 267 265 264 263 263 262 258 257 256 256 257 255 253 252 251 252 253 255 259 261 263 264 270
273 269 269 269 268 268 267 265 265 265 264 264 264 263 264 262 262 263 265 268 268 265 264 264 264 262 258 257 256 255 254 253 251 251 251 253 254 255 258 263 266 269 271
273 271 270 269 268 264 261 262 264 266 264 263 264 263 264 263 262 262 265 266 268 268 266 266 265 262 257 255 255 253 252 253 252 251 250 252 254 256 259 263 266 268 268
274 274 273 271 267 263 261 262 261 262 264 265 265 266 265 265 263 264 269 268 266 268 269 269 267 264 259 255 254 252 248 248 250 250 251 253 255 258 260 260 263 265 266
274 276 276 273 269 265 262 261 261 261 263 263 264 265 265 265 266 265 269 269 266 267 268 265 264 262 260 257 256 254 251 250 250 251 253 255 257 258 260 261 264 267 266
275 276 277 273 271 270 265 262 261 263 264 263 263 264 265 263 264 266 268 269 267 263 265 263 262 261 259 256 254 252 251 251 252 253 255 256 256 257 260 262 264 266 266
273 275 276 272 269 271 268 266 266 265 264 266 266 264 265 265 265 265 266 266 263 261 261 259 259 260 258 256 253 251 250 251 252 252 254 255 255 256 259 261 263 266 266
271 272 272 269 269 270 270 269 269 268 267 268 267 265 265 265 266 265 264 263 259 258 257 256 257 258 258 256 253 252 251 250 251 252 254 255 254 254 258 261 263 266 265
269 270 267 265 267 268 269 268 268 269 270 269 266 265 265 265 265 263 260 259 257 257 258 257 256 256 256 257 254 252 251 251 250 251 253 254 254 255 257 260 262 263 263
268 269 267 265 265 266 266 267 267 269 270 270 267 266 266 264 264 261 261 258 257 257 258 256 255 255 256 257 256 254 252 252 252 252 253 254 255 256 259 258 259 260 262
268 268 268 266 265 264 264 265 266 267 267 268 267 266 267 265 262 261 261 259 257 256 256 253 253 254 253 256 256 256 255 253 253 253 254 255 256 256 257 257 258 259 261
267 269 268 267 265 265 265 265 265 266 266 267 268 267 266 264 262 261 259 258 257 254 253 252 251 251 252 254 255 255 257 256 255 253 253 254 255 256 256 256 258 259 261
266 267 268 269 266 265 266 266 265 263 263 264 265 266 266 264 263 261 259 259 258 255 252 250 249 250 251 254 255 257 256 255 256 255 254 255 257 259 257 256 257 259 261
264 265 267 268 267 266 267 266 265 263 262 262 263 264 266 266 263 261 261 258 257 255 253 252 250 250 251 254 256 257 257 256 256 256 256 257 258 258 257 257 258 259 260
264 264 265 266 266 267 267 266 265 264 263 263 263 263 264 265 265 264 262 259 258 258 257 254 251 251 252 254 256 257 257 257 256 257 257 257 257 257 257 257 257 258 259
263 263 263 265 266 266 265 264 264 264 264 263 263 263 263 264 265 264 262 261 261 260 257 255 254 254 254 255 256 257 256 256 257 258 259 259 259 257 256 257 257 258 259
262 263 262 262 264 264 264 263 264 265 263 263 263 263 263 263 264 263 262 261 260 259 257 257 257 256 255 255 257 256 257 256 256 258 260 261 260 259 257 256 258 259 260
263 263 264 264 264 263 264 265 266 266 265 264 263 263 262 262 263 265 263 260 259 258 258 257 257 256 255 255 257 258 259 258 257 258 261 262 261 259 258 257 257 258 260
263 263 264 265 266 264 265 266 267 267 267 265 265 264 265 265 265 265 262 259 258 257 257 257 258 258 258 259 259 260 259 259 260 260 261 263 262 260 259 258 258 259 260
261 261 263 265 265 265 265 266 266 266 266 264 263 262 263 263 264 263 260 259 258 258 258 258 258 258 258 259 260 260 259 258 260 261 262 263 262 261 260 259 259 260 260
Height
5869 5868 5868 5867 5866 5866 5865 5865 5865 5864 5865 5865 5865 5865 5864 5864 5864 5864 5864 5863 5863 5863 5863 5863 5863 5863 5864 5864 5865 5865 5866 5866 5867 5867 5868 5868 5868 5868 5868 5868 5868 5868 5868
5866 5865 5865 5864 5863 5862 5862 5862 5862 5861 5861 5862 5862 5862 5862 5861 5861 5861 5861 5860 5860 5860 5860 5860 5860 5860 5861 5861 5862 5862 5863 5863 5864 5864 5865 5865 5866 5865 5866 5865 5865 5866 5866
5863 5862 5862 5861 5860 5859 5858 5858 5858 5858 5858 5858 5859 5859 5859 5858 5858 5858 5858 5857 5857 5857 5857 5857 5857 5857 5858 5858 5859 5859 5860 5861 5861 5861 5862 5862 5863 5863 5863 5863 5863 5863 5863
5859 5859 5858 5857 5857 5856 5855 5854 5854 5854 5854 5855 5855 5856 5856 5855 5855 5855 5855 5854 5854 5854 5853 5854 5854 5854 5854 5855 5855 5856 5857 5858 5858 5858 5859 5860 5860 5860 5861 5861 5861 5861 5860
5855 5855 5854 5854 5853 5853 5852 5851 5851 5850 5851 5852 5852 5852 5852 5852 5852 5851 5851 5851 5851 5850 5850 5850 5850 5850 5851 5851 5852 5853 5853 5854 5854 5855 5856 5856 5857 5857 5857 5858 5858 5858 5858
5851 5851 5850 5850 5849 5849 5848 5848 5847 5847 5848 5848 5848 5849 5849 5849 5848 5848 5848 5847 5847 5847 5847 5847 5847 5847 5847 5848 5848 5849 5850 5850 5851 5851 5852 5853 5854 5854 5855 5855 5855 5855 5855
5847 5847 5846 5846 5845 5844 5844 5844 5844 5844 5844 5844 5844 5845 5845 5845 5844 5844 5844 5844 5843 5843 5843 5843 5843 5843 5843 5844 5844 5845 5846 5846 5847 5848 5849 5850 5850 5851 5852 5852 5852 5852 5852
5843 5842 5842 5841 5841 5840 5840 5840 5840 5840 5840 5840 5840 5841 5841 5840 5840 5840 5840 5839 5839 5839 5839 5839 5839 5839 5839 5840 5840 5841 5842 5843 5843 5844 5845 5846 5847 5847 5848 5849 5849 5849 5849
5838 5837 5837 5836 5836 5836 5836 5836 5836 5836 5835 5836 5836 5836 5836 5836 5836 5835 5835 5835 5835 5835 5835 5835 5835 5835 5835 5836 5837 5837 5838 5839 5840 5840 5841 5842 5843 5844 5844 5845 5845 5846 5845
5833 5832 5832 5831 5831 5831 5831 5831 5831 5831 5831 5831 5831 5831 5831 5831 5831 5831 5831 5831 5830 5830 5831 5831 5831 5831 5831 5832 5833 5833 5834 5835 5836 5837 5838 5838 5839 5840 5841 5841 5842 5842 5842
5828 5828 5827 5826 5826 5826 5826 5826 5826 5826 5827 5826 5826 5826 5826 5826 5826 5826 5826 5826 5825 5826 5826 5826 5827 5827 5827 5828 5828 5829 5830 5831 5832 5833 5834 5834 5835 5836 5837 5837 5838 5838 5838
5823 5822 5822 5821 5821 5821 5821 5820 5821 5821 5821 5821 5821 5821 5821 5821 5821 5821 5821 5821 5820 5820 5821 5822 5822 5822 5823 5824 5825 5825 5826 5827 5828 5829 5830 5831 5831 5832 5833 5833 5834 5834 5835
5817 5816 5816 5815 5815 5815 5815 5815 5815 5815 5816 5816 5815 5815 5815 5815 5815 5815 5815 5815 5815 5815 5816 5817 5817 5818 5818 5819 5820 5821 5822 5823 5824 5825 5826 5826 5827 5828 5828 5829 5830 5830 5830
5811 5810 5810 5810 5810 5810 5810 5809 5809 5809 5809 5809 5809 5809 5809 5809 5809 5809 5810 5810 5810 5811 5811 5812 5812 5813 5813 5814 5815 5816 5817 5818 5819 5820 5821 5822 5823 5824 5824 5825 5825 5826 5826
5804 5803 5803 5803 5803 5803 5803 5803 5803 5803 5803 5803 5803 5803 5803 5803 5803 5803 5804 5804 5804 5805 5806 5806 5807 5808 5808 5809 5810 5810 5811 5812 5813 5815 5816 5817 5818 5819 5820 5820 5821 5821 5821
5797 5797 5796 5796 5796 5796 5796 5796 5796 5796 5796 5796 5796 5796 5796 5796 5796 5797 5797 5798 5798 5798 5799 5800 5801 5802 5803 5804 5804 5805 5806 5807 5808 5809 5810 5811 5812 5813 5814 5815 5816 5816 5817
5790 5790 5789 5789 5789 5789 5789 5789 5789 5789 5789 5789 5789 5789 5789 5789 5789 5790 5790 5791 5791 5792 5793 5794 5795 5795 5796 5797 5798 5799 5800 5801 5802 5803 5804 5805 5807 5808 5809 5810 5810 5811 5812
5782 5781 5781 5781 5781 5781 5780 5780 5781 5781 5781 5782 5781 5782 5781 5781 5782 5782 5783 5784 5784 5785 5786 5787 5788 5789 5790 5791 5792 5793 5794 5795 5796 5797 5798 5799 5800 5801 5803 5804 5805 5806 5806
5773 5773 5773 5773 5773 5772 5772 5772 5772 5772 5773 5773 5774 5774 5773 5774 5774 5775 5776 5776 5777 5778 5779 5780 5781 5782 5784 5785 5786 5787 5787 5788 5789 5790 5791 5793 5794 5795 5796 5797 5798 5799 5800
5765 5765 5765 5764 5764 5764 5763 5763 5763 5764 5764 5765 5765 5766 5766 5766 5766 5767 5768 5769 5769 5770 5771 5773 5774 5775 5777 5778 5779 5780 5781 5782 5783 5784 5785 5786 5787 5788 5789 5790 5792 5793 5794
5756 5756 5756 5756 5755 5755 5754 5755 5755 5756 5756 5756 5757 5757 5758 5758 5758 5759 5760 5761 5761 5762 5763 5765 5766 5767 5769 5770 5771 5772 5774 5775 5776 5776 5777 5779 5780 5781 5782 5783 5784 5786 5786
5747 5747 5747 5747 5747 5746 5746 5747 5747 5747 5748 5748 5749 5749 5750 5750 5750 5751 5752 5752 5753 5754 5755 5756 5757 5759 5761 5762 5763 5765 5766 5767 5768 5769 5770 5771 5772 5773 5774 5775 5777 5778 5779
5739 5739 5739 5739 5739 5738 5738 5738 5739 5739 5739 5740 5740 5741 5741 5742 5742 5743 5743 5744 5745 5746 5747 5748 5749 5751 5752 5754 5755 5756 5757 5759 5760 5761 5762 5763 5764 5765 5766 5767 5768 5769 5771
5730 5730 5730 5730 5730 5730 5730 5730 5730 5730 5731 5731 5732 5732 5733 5733 5733 5734 5735 5736 5737 5738 5739 5740 5741 5742 5744 5745 5746 5748 5749 5750 5751 5753 5754 5755 5756 5757 5758 5758 5760 5761 5763
5721 5721 5722 5722 5722 5722 5722 5722 5722 5722 5722 5723 5723 5724 5723 5723 5724 5725 5726 5727 5728 5729 5730 5731 5732 5734 5735 5737 5738 5739 5741 5742 5743 5744 5745 5746 5747 5748 5749 5750 5751 5753 5754
5712 5713 5713 5713 5713 5713 5713 5714 5714 5714 5714 5714 5714 5714 5715 5715 5716 5716 5717 5718 5719 5721 5722 5723 5724 5725 5727 5728 5729 5730 5732 5733 5734 5735 5736 5737 5738 5739 5740 5741 5743 5744 5745